Retour au catalogue

STARLINK-3791

ActifCommunicationsVLEO
NORAD 52269·PAYLOAD·🇺🇸 United States

Lancé Apr 21, 2022 depuis Cape Canaveral Space Force Station

Loading…

Prochains Passages (prochaines 24 heures)

TLE

FraisSource: CelesTrak SupGP

Époque: Sep 14, 2026, 20:58 UTC

1 52269C 22041J   26257.87409722 -.00146670  00000+0 -41958-2 0  2575
2 52269  53.1608 334.2091 0000810  50.7163 356.2003 15.35477420    10

Suivez STARLINK-3791 en temps réel avec AllMySat

Download on the App Store